Regional Weather Roundup
Issued by NWS

Home | Current Version | Previous Version | Graphics & Text | Print | Product List | Glossary On
Versions: 1 2 3 4 5 6 7 8 9 10 11 12 13 14 15 16 17 18 19 20 21 22 23 24 25 26 27 28 29 30 31 32 33 34 35 36 37 38 39 40 41 42 43 44 45 46 47 48 49 50
000
ASUS43 KMKX 221111
RWRWI

WISCONSIN REGIONAL WEATHER ROUNDUP
NATIONAL WEATHER SERVICE MILWAUKEE/SULLIVAN WI
500 AM CST MON DEC 22 2014

NOTE: "FAIR" INDICATES FEW OR NO CLOUDS BELOW 12,000 FEET WITH NO
SIGNIFICANT WEATHER AND/OR OBSTRUCTIONS TO VISIBILITY.

WIZ001-002-006>008-014>016-023>028-221200-
NORTHWEST WISCONSIN

CITY           SKY/WX    TMP DP  RH WIND       PRES   REMARKS
SUPERIOR ARPT  RAIN      33  33  96 CALM      29.72F
ASHLAND        CLOUDY    35  33  92 S6        29.76F WCI  30
HAYWARD        CLOUDY    35  32  88 S10       29.73F WCI  27
SIREN          LGT RAIN  35  34  97 S9        29.70F WCI  27
CUMBERLAND     CLOUDY    32  32 100 SE9       29.72S FOG     WCI  24
RICE LAKE      CLOUDY    34  33  97 SE9       29.75S FOG     WCI  26
CHETEK         CLOUDY    34  33  99 SE9       29.75S FOG     WCI  26
LADYSMITH      CLOUDY    35  34  96 SE9       29.78S FOG     WCI  27
EAU CLAIRE     CLOUDY    35  33  92 SE13      29.76S FOG     WCI  26
MENOMONIE      CLOUDY    36  35  96 SE9       29.74F FOG     WCI  29
NEW RICHMOND   CLOUDY    35  35 100 SE10      29.70F FOG     WCI  28
OSCEOLA        CLOUDY    37  37 100 SE13      29.72F WCI  28
$$

WIZ003>005-009-010-017-018-221200-
NORTH CENTRAL WISCONSIN

CITY           SKY/WX    TMP DP  RH WIND       PRES   REMARKS
MANITOWISH WTR CLOUDY    32  32 100 S10       29.78S FOG     WCI  24
ARBOR VITAE    CLOUDY    34  32  93 S12G17    29.79S FOG     WCI  25
WOODRUFF       CLOUDY    34  32  93 S12G17    29.79S FOG     WCI  25
RHINELANDER    CLOUDY    32  30  92 S13       29.82S FOG     WCI  22
EAGLE RIVER    CLOUDY    32  32  99 S6        29.81S FOG     WCI  26
LAND O LAKES   CLOUDY    33  32  98 S8        29.81F FOG     WCI  25
PHILLIPS       FLURRIES  32  32  98 S9        29.77S WCI  25
TOMAHAWK       CLOUDY    32  31  96 S8        29.81S FOG     WCI  25
MEDFORD        CLOUDY    32  31  96 SE13G20   29.79S FOG     WCI  22
MERRILL        CLOUDY    32  32  99 S8G17     29.83S FOG     WCI  25
$$

WIZ029-030-035-036-043>047-221200-
CENTRAL WISCONSIN

CITY           SKY/WX    TMP DP  RH WIND       PRES   REMARKS
WAUSAU         CLOUDY    33  31  92 SE8       29.82F FOG     WCI  26
MOSINEE        CLOUDY    32  32 100 SE12      29.84F FOG     WCI  23
MARSHFIELD     CLOUDY    33  31  92 SE9       29.81F FOG     WCI  25
STEVENS POINT  CLOUDY    32  30  92 SE8       29.86S FOG     WCI  24
WAUPACA        CLOUDY    36  31  82 SE7       29.89S WCI  30
WAUTOMA        CLOUDY    34  32  92 SE8       29.88F WCI  27
WISC RAPIDS    CLOUDY    34  29  82 S6        29.86S WCI  29
CAMP DOUGLAS   CLOUDY    34  34 100 SE9       29.83S WCI  26
$$

WIZ011>013-019>022-031-037>040-048>050-221200-
NORTHEAST WISCONSIN

CITY           SKY/WX    TMP DP  RH WIND       PRES   REMARKS
ANTIGO         CLOUDY    31  30  98 S9        29.84F FOG     WCI  23
SHAWANO        CLOUDY    36  31  82 S3        29.90F
OCONTO         CLOUDY    35  32  89 S8        29.93S WCI  28
STURGEON BAY   CLOUDY    36  30  80 S15       29.95F WCI  26
GREEN BAY      CLOUDY    35  31  85 S8        29.92F FOG     WCI  29
MANITOWOC      CLOUDY    37  34  89 S16G22    29.94F WCI  28
APPLETON       NOT AVBL
CLINTONVILLE   CLOUDY    34  30  86 S9        29.89F WCI  26
OSHKOSH        CLOUDY    35  29  78 S10       29.90F WCI  27
$$

WIZ032>034-041-042-053>061-221200-
SOUTHWEST WISCONSIN

CITY           SKY/WX    TMP DP  RH WIND       PRES   REMARKS
LA CROSSE      CLOUDY    37  32  82 SE10      29.79F WCI  30
SPARTA         CLOUDY    35  31  87 SE5       29.82S WCI  31
VIROQUA        CLOUDY    33  33 100 SE12      29.78F WCI  24
BOSCOBEL       CLOUDY    36  31  82 CALM      29.83F
PRAIRIE DU CHI CLOUDY    36  31  83 SE9       29.80F WCI  29
PLATTEVILLE    CLOUDY    34  32  91 SE3       29.83F
$$

WIZ056-057-062-063-064-067-068-221200-
SOUTH CENTRAL WISCONSIN

CITY           SKY/WX    TMP DP  RH WIND       PRES   REMARKS
REEDSBURG      CLOUDY    33  31  92 SE7       29.84S WCI  27
BARABOO/DELLS  CLOUDY    33  31  91 SE10      29.84F FOG     WCI  25
LONE ROCK      CLOUDY    38  31  76 E6        29.85F WCI  33
MINERAL POINT  CLOUDY    34  32  93 SE13      29.82F FOG     WCI  25
MADISON        CLOUDY    34  30  85 S15       29.87F FOG     WCI  24
MIDDLETON      CLOUDY    35  33  92 S9        29.87F WCI  28
WATERTOWN      MIX PCPN  32  32 100 SE8       29.90S WCI  25
MONROE         CLOUDY    32  32 100 SE9       29.86S FOG     WCI  24
JANESVILLE     CLOUDY    34  32  93 SE9       29.90F FOG     WCI  26
$$

WIZ051-052-058>065-066-070>072-221200-
SOUTHEAST WISCONSIN

CITY           SKY/WX    TMP DP  RH WIND       PRES   REMARKS
MILWAUKEE      MOCLDY    34  28  79 S7        29.95F WCI  28
WAUKESHA       CLOUDY    32  28  86 SE9       29.94S WCI  24
MILWAUKEE/TIMM CLOUDY    32  28  86 SE7       29.95S WCI  26
RACINE         MOCLDY    34  29  82 S9        29.96F WCI  27
BURLINGTON     CLOUDY    31  27  85 SE8       29.93S WCI  23
KENOSHA        CLOUDY    32  28  85 SE7       29.95S FOG     WCI  26
FOND DU LAC    CLOUDY    35  28  75 S13       29.90F WCI  26
SHEBOYGAN      CLOUDY    36  31  82 S9        29.94F WCI  29
WEST BEND      CLOUDY    32  28  86 SE5       29.92F WCI  27
JUNEAU         MIX PCPN  32  31  95 SE10      29.90F WCI  24
$$

LSZ147-162-221200-
LAKE SUPERIOR

STATION/POSITION TIME  TEMP    WIND        PRES    WAVE
                       AIR SEA DIR/SP/G            HT/PER
                 (UTC) (F)     (DEG/KT/KT) (MB)    (FT/S)
DEVILS ISLAND    1100   34     150/ 10/ 12 1008.6S
PORT WING        1040   35     150/  2/  3 1007.1F
SAXON HARBOR     1000   38     180/  4/ 12 1008.1S
$$

LMZ867-665-643>646-221200-
LAKE MICHIGAN

STATION/POSITION TIME  TEMP    WIND        PRES    WAVE
                       AIR SEA DIR/SP/G            HT/PER
                 (UTC) (F)     (DEG/KT/KT) (MB)    (FT/S)
CHAMBERS ISLAND  1000   37     160/  5/ 10 1014.2S
NORTHPORT PIER   1000   36     150/ 13/ 17 1014.6F
SISTER BAY       1013          180/ 16/ 21   N/A
ALGOMA LAKESHORE 1015          220/ 23/ 25   N/A
KEWAUNEE LAKESHO 1000   36     180/ 15/ 17 1013.7F
SHEBOYGAN LAKESH 1100   37 36  170/ 21/ 23 1014.5F
PORT WASHINGTON  0900   36     190/ 12/ 16 1015.6F
MILWAUKEE LAKESH 1000   35     170/ 13/ 16   N/A
KENOSHA   LAKESH 1100   35     170/ 15/ 17 1014.2F
$$

TC  - TEMPERATURE IN CELSIUS
VSB - VISIBILITY IN STATUTE MILES
WCI - WIND CHILL INDEX
HX  - HEAT INDEX



USA.gov is the U.S. government's official web portal to all federal, state and local government web resources and services.